Air Force Academy, CO

4:28 PM MST on November 11, 2019 (GMT -0700)
Usaf Academy

Weather History for KAFF - May, 2019

Change the Weather History Date:

Monday, May 13, 2019

  Actual Average Record
Temperature  
Mean Temperature 54 °F -  
Max Temperature 72 °F 64 °F 79 °F (2017)
Min Temperature 36 °F 38 °F 24 °F (2014)
Degree Days  
Heating Degree Days 12    
Growing Degree Days 4 (Base 50)    
Moisture  
Dew Point 27 °F    
Average Humidity 31    
Maximum Humidity 73    
Minimum Humidity 17    
Precipitation  
Precipitation 0.00 in - - ()
Sea Level Pressure  
Sea Level Pressure 29.85 in    
Wind  
Wind Speed 10 mph (NNW)    
Max Wind Speed 25 mph    
Max Gust Speed 33 mph    
Visibility 10 miles    
Events Rain    
Averages and records for this station are not official NWS values.
T = Trace of Precipitation, MM = Missing Value Source: NWS Daily Summary

Daily Weather History Graph

Daily Weather History Graph

Search for Another Location

Airport or City:

Astronomy

May. 13, 2019 Rise Set
Actual Time 5:48 AM MDT 8:03 PM MDT
Civil Twilight 5:18 AM MDT 8:33 PM MDT
Nautical Twilight 4:42 AM MDT 9:09 PM MDT
Astronomical Twilight 4:01 AM MDT 9:50 PM MDT
Moon 2:21 PM MDT (5/13) 3:04 AM MDT (5/13)
Length of Visible Light 15h 14m
Length of Day
14h 14m
Waxing Gibbous, 69% of the Moon is Illuminated
May 13
Waxing Gibbous
May 18
Full
May 26
Last Quarter
Jun 3
New
Jun 10
First Quarter

Hourly Weather History & Observations

Time (MDT) Temp. Windchill Dew Point Humidity Pressure Visibility Wind Dir Wind Speed Gust Speed Precip Events Conditions
12:58 AM 40.1 °F 35.3 °F 30.7 °F 69% 29.85 in 10.0 mi North 6.9 mph - N/A   Clear
1:58 AM 38.8 °F 32.1 °F 30.2 °F 71% 29.85 in 10.0 mi North 10.4 mph - N/A   Clear
2:58 AM 38.5 °F 32.7 °F 30.2 °F 72% 29.84 in 10.0 mi North 8.1 mph - N/A   Clear
3:58 AM 38.1 °F 31.7 °F 29.5 °F 71% 29.85 in 10.0 mi North 9.2 mph - N/A   Clear
4:58 AM 36.5 °F 29.7 °F 28.6 °F 73% 29.85 in 10.0 mi North 9.2 mph - N/A   Clear
5:58 AM 42.4 °F 38.8 °F 28.2 °F 57% 29.84 in 10.0 mi NNE 5.8 mph - N/A   Clear
6:58 AM 49.3 °F - 30.4 °F 48% 29.84 in 10.0 mi North 4.6 mph - N/A   Clear
7:58 AM 63.5 °F - 26.1 °F 24% 29.81 in 10.0 mi WNW 10.4 mph - N/A   Clear
8:46 AM 66.2 °F - 24.8 °F 21% 29.81 in 10.0 mi NNW 13.8 mph 20.7 mph N/A   Clear
8:58 AM 66.6 °F - 24.3 °F 20% 29.82 in 10.0 mi NNW 15.0 mph 25.3 mph N/A   Clear
9:58 AM 70.0 °F - 24.4 °F 18% 29.83 in 10.0 mi North 21.9 mph 29.9 mph N/A   Scattered Clouds
10:58 AM 69.1 °F - 22.5 °F 17% 29.85 in 10.0 mi North 15.0 mph 27.6 mph N/A   Scattered Clouds
11:13 AM 69.8 °F - 24.8 °F 18% 29.86 in 10.0 mi NNE 15.0 mph 24.2 mph N/A   Mostly Cloudy
11:29 AM 71.6 °F - 24.8 °F 17% 29.85 in 10.0 mi North 12.7 mph 19.6 mph N/A   Partly Cloudy
11:58 AM 71.6 °F - 24.4 °F 17% 29.85 in 10.0 mi NNE 11.5 mph 23.0 mph N/A   Clear
12:43 PM 69.8 °F - 24.8 °F 18% 29.84 in 10.0 mi NNE 12.7 mph - N/A   Mostly Cloudy
12:58 PM 68.7 °F - 23.5 °F 18% 29.87 in 10.0 mi Calm Calm - N/A   Mostly Cloudy
1:12 PM 68.0 °F - 24.8 °F 20% 29.86 in 10.0 mi North 18.4 mph 26.5 mph N/A   Mostly Cloudy
1:14 PM 68.0 °F - 24.8 °F 20% 29.87 in 10.0 mi NNE 11.5 mph 26.5 mph N/A Rain Light Rain Showers
1:27 PM 68.0 °F - 24.8 °F 20% 29.87 in 10.0 mi WSW 11.5 mph - N/A   Scattered Clouds
1:51 PM 66.2 °F - 26.6 °F 23% 29.88 in 10.0 mi WSW 15.0 mph 25.3 mph N/A   Mostly Cloudy
1:58 PM 66.9 °F - 24.4 °F 20% 29.87 in 10.0 mi West 4.6 mph 21.9 mph N/A   Mostly Cloudy
2:12 PM 69.8 °F - 26.6 °F 20% 29.87 in 10.0 mi WNW 15.0 mph 21.9 mph N/A   Mostly Cloudy
2:19 PM 69.8 °F - 26.6 °F 20% 29.87 in 10.0 mi NW 17.3 mph 24.2 mph N/A   Mostly Cloudy
2:26 PM 68.0 °F - 26.6 °F 21% 29.87 in 10.0 mi North 18.4 mph 27.6 mph N/A   Mostly Cloudy
2:29 PM 66.2 °F - 26.6 °F 23% 29.87 in 10.0 mi North 25.3 mph 29.9 mph N/A Rain Light Rain Showers
2:35 PM 66.2 °F - 24.8 °F 21% 29.89 in 10.0 mi NNE 12.7 mph 29.9 mph N/A   Mostly Cloudy
2:38 PM 66.2 °F - 24.8 °F 21% 29.88 in 10.0 mi ENE 18.4 mph 28.8 mph N/A   Mostly Cloudy
2:58 PM 68.5 °F - 27.0 °F 21% 29.86 in 10.0 mi SE 8.1 mph 24.2 mph N/A   Mostly Cloudy
3:58 PM 70.3 °F - 27.3 °F 20% 29.85 in 10.0 mi Calm Calm - N/A   Scattered Clouds
4:37 PM 68.0 °F - 28.4 °F 23% 29.86 in 10.0 mi NW 13.8 mph 19.6 mph N/A   Mostly Cloudy
4:49 PM 69.8 °F - 24.8 °F 18% 29.85 in 10.0 mi SW 11.5 mph 21.9 mph N/A   Scattered Clouds
4:58 PM 70.2 °F - 23.4 °F 17% 29.85 in 10.0 mi SW 6.9 mph 21.9 mph N/A   Scattered Clouds
5:58 PM 68.2 °F - 26.8 °F 21% 29.83 in 10.0 mi SW 4.6 mph - N/A   Clear
6:58 PM 66.2 °F - 28.4 °F 24% 29.84 in 10.0 mi SW 9.2 mph - N/A   Overcast
7:11 PM 66.2 °F - 30.2 °F 26% 29.82 in 10.0 mi SW 15.0 mph 33.4 mph N/A   Mostly Cloudy
7:58 PM 62.2 °F - 31.3 °F 31% 29.83 in 10.0 mi Calm Calm - N/A   Partly Cloudy
8:02 PM 62.6 °F - 30.2 °F 30% 29.81 in 10.0 mi NE 13.8 mph 28.8 mph N/A   Partly Cloudy
8:58 PM 57.9 °F - 30.4 °F 35% 29.83 in 10.0 mi NE 8.1 mph - N/A   Clear
9:58 PM 52.9 °F - 32.7 °F 46% 29.86 in 10.0 mi Calm Calm - N/A   Clear
10:58 PM 45.7 °F 42.0 °F 33.1 °F 61% 29.90 in 10.0 mi NNW 6.9 mph - N/A   Clear
11:58 PM 42.8 °F 39.3 °F 32.9 °F 68% 29.90 in 10.0 mi NNW 5.8 mph - N/A   Clear